When you browse on this site, cookies collect data to enhance your experience and personalize the content and advertising you see.
Visit our Privacy Policy to learn more. By continuing to use the site, you agree to this use of cookies and data.
  • In Spain
  • List of Countries
  • For 7 days
  • Water Temperature
  • Weather Map
  • Weather Widgets
  • user-avatar
    Login

    Hourly Weather Hartford

    Today, 6 December, Friday

    Time Temperature Precipitation Wind Pressure Humidity
    00:00 +11°C° 0 mm 7 mps 750 mmHg 87%
    01:00 +11°C° 0.1 mm 6 mps 749 mmHg 87%
    02:00 +11°C° 0.1 mm 6 mps 748 mmHg 87%
    03:00 +11°C° 0.1 mm 6 mps 748 mmHg 88%
    04:00 +11°C° 0 mm 6 mps 748 mmHg 89%
    05:00 +10°C° 0 mm 5 mps 747 mmHg 90%
    06:00 +10°C° 0 mm 5 mps 747 mmHg 91%
    07:00 +10°C° 0.2 mm 5 mps 746 mmHg 90%
    08:00 +10°C° 0.2 mm 5 mps 746 mmHg 90%
    09:00 +10°C° 0.2 mm 5 mps 745 mmHg 89%
    10:00 +12°C° 0.3 mm 5 mps 745 mmHg 84%
    11:00 +12°C° 0.3 mm 5 mps 745 mmHg 78%
    12:00 +11°C° 0.3 mm 6 mps 745 mmHg 73%
    13:00 +10°C° 0.9 mm 5 mps 745 mmHg 76%
    14:00 +9°C° 0.9 mm 5 mps 745 mmHg 80%
    15:00 +7°C° 0.9 mm 5 mps 745 mmHg 84%
    16:00 +8°C° 0.1 mm 5 mps 746 mmHg 84%
    17:00 +8°C° 0.1 mm 5 mps 747 mmHg 83%
    18:00 +8°C° 0.1 mm 6 mps 748 mmHg 83%
    19:00 +8°C° 0.1 mm 5 mps 749 mmHg 84%
    20:00 +7°C° 0.1 mm 5 mps 749 mmHg 85%
    21:00 +7°C° 0.1 mm 5 mps 750 mmHg 87%
    22:00 +7°C° 0 mm 5 mps 750 mmHg 87%
    23:00 +7°C° 0 mm 5 mps 751 mmHg 87%

    Tomorrow, 7 December, Saturday

    Time Temperature Precipitation Wind Pressure Humidity
    00:00 +7°C° 0 mm 5 mps 752 mmHg 87%
    01:00 +7°C° 0 mm 4 mps 752 mmHg 88%
    02:00 +6°C° 0 mm 4 mps 752 mmHg 89%
    03:00 +6°C° 0 mm 4 mps 752 mmHg 89%
    04:00 +7°C° 0.1 mm 4 mps 753 mmHg 87%
    05:00 +7°C° 0.1 mm 4 mps 753 mmHg 85%
    06:00 +7°C° 0.1 mm 4 mps 753 mmHg 83%
    07:00 +7°C° 0 mm 4 mps 754 mmHg 84%
    08:00 +7°C° 0 mm 4 mps 754 mmHg 85%
    09:00 +7°C° 0 mm 4 mps 754 mmHg 86%
    10:00 +7°C° 0 mm 4 mps 754 mmHg 84%
    11:00 +8°C° 0 mm 4 mps 755 mmHg 82%
    12:00 +8°C° 0 mm 4 mps 755 mmHg 80%
    13:00 +8°C° 0 mm 4 mps 754 mmHg 82%
    14:00 +8°C° 0 mm 4 mps 753 mmHg 83%
    15:00 +8°C° 0 mm 4 mps 753 mmHg 84%
    16:00 +8°C° 0 mm 5 mps 752 mmHg 85%
    17:00 +8°C° 0 mm 6 mps 752 mmHg 86%
    18:00 +8°C° 0 mm 6 mps 752 mmHg 87%
    19:00 +9°C° 0 mm 7 mps 751 mmHg 86%
    20:00 +9°C° 0 mm 7 mps 749 mmHg 84%
    21:00 +9°C° 0 mm 7 mps 748 mmHg 83%
    22:00 +9°C° 0.2 mm 8 mps 747 mmHg 82%
    23:00 +8°C° 0.2 mm 9 mps 746 mmHg 82%

    Day after tomorrow, 8 December, Sunday

    Time Temperature Precipitation Wind Pressure Humidity
    00:00 +9°C° 0.2 mm 10 mps 744 mmHg 82%
    01:00 +10°C° 0.5 mm 9 mps 743 mmHg 84%
    02:00 +11°C° 0.5 mm 8 mps 742 mmHg 87%
    03:00 +11°C° 0.5 mm 7 mps 741 mmHg 89%
    04:00 +10°C° 0.2 mm 7 mps 742 mmHg 84%
    05:00 +8°C° 0.2 mm 6 mps 742 mmHg 79%
    06:00 +7°C° 0.2 mm 6 mps 743 mmHg 74%
    07:00 +5°C° 0 mm 6 mps 743 mmHg 76%
    08:00 +5°C° 0 mm 7 mps 743 mmHg 78%
    09:00 +5°C° 0 mm 7 mps 743 mmHg 80%
    10:00 +5°C° 0.2 mm 7 mps 743 mmHg 75%
    11:00 +6°C° 0.2 mm 8 mps 742 mmHg 71%
    12:00 +6°C° 0.2 mm 9 mps 742 mmHg 66%
    13:00 +6°C° 0.1 mm 8 mps 742 mmHg 67%
    14:00 +5°C° 0.1 mm 8 mps 741 mmHg 68%
    15:00 +5°C° 0.1 mm 8 mps 741 mmHg 69%
    16:00 +5°C° 0.1 mm 8 mps 740 mmHg 71%
    17:00 +5°C° 0.1 mm 8 mps 739 mmHg 73%
    18:00 +4°C° 0.1 mm 8 mps 739 mmHg 75%
    19:00 +3°C° 0.4 mm 9 mps 737 mmHg 78%
    20:00 +3°C° 0.4 mm 9 mps 736 mmHg 80%
    21:00 +3°C° 0.4 mm 10 mps 734 mmHg 83%
    22:00 +5°C° 0.6 mm 10 mps 734 mmHg 80%
    23:00 +5°C° 0.6 mm 10 mps 734 mmHg 76%

    9 December, Monday

    Time Temperature Precipitation Wind Pressure Humidity
    00:00 +6°C° 0.6 mm 11 mps 734 mmHg 73%
    01:00 +5°C° 0.3 mm 10 mps 735 mmHg 75%
    02:00 +5°C° 0.3 mm 9 mps 736 mmHg 77%
    03:00 +5°C° 0.3 mm 9 mps 737 mmHg 79%
    04:00 +5°C° 0.3 mm 8 mps 738 mmHg 79%
    05:00 +5°C° 0.3 mm 7 mps 740 mmHg 80%
    06:00 +5°C° 0.3 mm 7 mps 741 mmHg 80%
    07:00 +5°C° 0 mm 7 mps 743 mmHg 78%
    08:00 +5°C° 0 mm 6 mps 745 mmHg 75%
    09:00 +5°C° 0 mm 6 mps 748 mmHg 73%
    10:00 +5°C° 0 mm 6 mps 749 mmHg 70%
    11:00 +6°C° 0 mm 7 mps 751 mmHg 66%
    12:00 +6°C° 0 mm 8 mps 753 mmHg 63%
    13:00 +5°C° 0 mm 7 mps 754 mmHg 63%
    14:00 +5°C° 0 mm 6 mps 755 mmHg 63%
    15:00 +4°C° 0 mm 6 mps 756 mmHg 63%
    16:00 +5°C° 0 mm 5 mps 757 mmHg 65%
    17:00 +4°C° 0 mm 4 mps 758 mmHg 66%
    18:00 +4°C° 0 mm 3 mps 759 mmHg 68%
    19:00 +4°C° 0 mm 2 mps 760 mmHg 70%
    20:00 +5°C° 0 mm 1 mps 760 mmHg 73%
    21:00 +5°C° 0 mm 1 mps 761 mmHg 75%
    22:00 +5°C° 0 mm 1 mps 760 mmHg 77%
    23:00 +4°C° 0 mm 2 mps 760 mmHg 80%

    10 December, Tuesday

    Time Temperature Precipitation Wind Pressure Humidity
    00:00 +4°C° 0 mm 2 mps 760 mmHg 82%
    01:00 +3°C° 0 mm 3 mps 760 mmHg 83%
    02:00 +3°C° 0 mm 3 mps 759 mmHg 83%
    03:00 +3°C° 0 mm 4 mps 758 mmHg 83%
    04:00 +3°C° 0.2 mm 5 mps 757 mmHg 84%
    05:00 +3°C° 0.2 mm 6 mps 755 mmHg 85%
    06:00 +4°C° 0.2 mm 7 mps 754 mmHg 87%
    07:00 +4°C° 1 mm 8 mps 752 mmHg 87%
    08:00 +5°C° 1 mm 9 mps 750 mmHg 87%
    09:00 +6°C° 1 mm 10 mps 749 mmHg 88%
    10:00 +7°C° 0.3 mm 10 mps 747 mmHg 88%
    11:00 +7°C° 0.3 mm 10 mps 745 mmHg 89%
    12:00 +8°C° 0.3 mm 9 mps 743 mmHg 90%
    13:00 +10°C° 1.3 mm 9 mps 743 mmHg 90%
    14:00 +10°C° 1.3 mm 9 mps 742 mmHg 90%
    15:00 +11°C° 1.3 mm 9 mps 741 mmHg 91%
    16:00 +9°C° 1.6 mm 8 mps 742 mmHg 87%
    17:00 +6°C° 1.6 mm 7 mps 743 mmHg 84%
    18:00 +4°C° 1.6 mm 7 mps 744 mmHg 80%
    19:00 +4°C° 0.1 mm 6 mps 745 mmHg 78%
    20:00 +4°C° 0.1 mm 6 mps 746 mmHg 76%
    21:00 +3°C° 0.1 mm 5 mps 746 mmHg 75%
    22:00 +3°C° 0 mm 5 mps 747 mmHg 75%
    23:00 +3°C° 0 mm 5 mps 747 mmHg 76%

    11 December, Wednesday

    Time Temperature Precipitation Wind Pressure Humidity
    00:00 +2°C° 0 mm 5 mps 747 mmHg 76%
    01:00 +2°C° 0 mm 5 mps 747 mmHg 77%
    02:00 +2°C° 0 mm 5 mps 746 mmHg 77%
    03:00 +2°C° 0 mm 5 mps 746 mmHg 77%
    04:00 +2°C° 0 mm 5 mps 746 mmHg 78%
    05:00 +1°C° 0 mm 4 mps 745 mmHg 79%
    06:00 +1°C° 0 mm 4 mps 745 mmHg 80%
    07:00 +1°C° 0.1 mm 5 mps 744 mmHg 81%
    08:00 +1°C° 0.1 mm 5 mps 743 mmHg 83%
    09:00 +1°C° 0.1 mm 5 mps 742 mmHg 84%
    10:00 +1°C° 1.1 mm 4 mps 741 mmHg 86%
    11:00 +2°C° 1.1 mm 3 mps 741 mmHg 87%
    12:00 +3°C° 1.1 mm 2 mps 740 mmHg 89%
    13:00 +2°C° 0.1 mm 3 mps 740 mmHg 88%
    14:00 +2°C° 0.1 mm 3 mps 739 mmHg 86%
    15:00 +1°C° 0.1 mm 4 mps 739 mmHg 85%
    16:00 +1°C° 0.1 mm 4 mps 739 mmHg 83%
    17:00 +1°C° 0.1 mm 4 mps 740 mmHg 82%
    18:00 0°C° 0.1 mm 4 mps 740 mmHg 80%
    19:00 0°C° 0.1 mm 4 mps 740 mmHg 80%
    20:00 0°C° 0.1 mm 4 mps 740 mmHg 79%
    21:00 +1°C° 0.1 mm 5 mps 741 mmHg 79%
    22:00 0°C° 0 mm 5 mps 740 mmHg 79%
    23:00 0°C° 0 mm 5 mps 740 mmHg 78%
    Show more